LNE617 SKBQ-SEQM

Flight info

Callsign LNE617
Flight time N/A
Altitude 330000
Route VOVLU2D VOVLU W46 MGN UW3 SERVO/N0468F350 UW3 MRN/N0469F340 UW26 RNG/N0467F350 UP778 BOKAN UP533 QIT
Aircraft B763/H-SDE3FGHIM3RWXY/LB1

Departure

Time N/A
Airport Ernesto Cortissoz International Airport (SKBQ)

Arrival

Time 2026-04-28 21:20
Airport Mariscal Sucre International Airport (SEQM)
Time Latitude Longitude Altitude Speed Heading
2026-04-28 20:54 1.36418 -77.56506 35210 ft 438 kts 209°
2026-04-28 20:54 1.31064 -77.59547 35210 ft 438 kts 209°
2026-04-28 20:55 1.25785 -77.62545 35220 ft 438 kts 209°
2026-04-28 20:55 1.20415 -77.65595 35303 ft 438 kts 209°
2026-04-28 20:56 1.15096 -77.68616 35383 ft 438 kts 209°
2026-04-28 20:56 1.09766 -77.71642 35453 ft 436 kts 209°
2026-04-28 20:57 1.04477 -77.74646 35454 ft 437 kts 209°
2026-04-28 20:57 0.99218 -77.77632 35454 ft 438 kts 209°
2026-04-28 20:58 0.93927 -77.80637 35436 ft 423 kts 209°
2026-04-28 20:58 0.88877 -77.83504 35456 ft 419 kts 209°
2026-04-28 20:59 0.83744 -77.86419 35454 ft 421 kts 209°
2026-04-28 20:59 0.81182 -77.87913 35324 ft 423 kts 213°
2026-04-28 20:59 0.78797 -77.89616 35023 ft 425 kts 216°
2026-04-28 21:00 0.76378 -77.91411 34544 ft 423 kts 216°
2026-04-28 21:00 0.74005 -77.93170 34088 ft 421 kts 216°
2026-04-28 21:00 0.71648 -77.94922 33647 ft 423 kts 216°
2026-04-28 21:00 0.69278 -77.96684 33205 ft 425 kts 216°
2026-04-28 21:01 0.66913 -77.98444 32764 ft 426 kts 216°
2026-04-28 21:01 0.64510 -78.00233 32319 ft 427 kts 216°
2026-04-28 21:01 0.62141 -78.01996 31877 ft 430 kts 216°
2026-04-28 21:01 0.60515 -78.03206 31566 ft 431 kts 216°
2026-04-28 21:02 0.58127 -78.04984 31092 ft 432 kts 216°
2026-04-28 21:02 0.54904 -78.07384 30431 ft 430 kts 216°
2026-04-28 21:02 0.52533 -78.09149 29943 ft 427 kts 216°
2026-04-28 21:02 0.50201 -78.10886 29476 ft 424 kts 216°
2026-04-28 21:03 0.47824 -78.12656 29040 ft 421 kts 216°
2026-04-28 21:03 0.45487 -78.14396 28609 ft 420 kts 216°
2026-04-28 21:03 0.43155 -78.16132 28177 ft 418 kts 216°
2026-04-28 21:03 0.40827 -78.17866 27744 ft 415 kts 215°
2026-04-28 21:04 0.38527 -78.19578 27316 ft 413 kts 215°
2026-04-28 21:04 0.36230 -78.21288 26889 ft 411 kts 215°
2026-04-28 21:04 0.33957 -78.22981 26465 ft 409 kts 215°
2026-04-28 21:04 0.31631 -78.24712 26031 ft 406 kts 215°
2026-04-28 21:05 0.29384 -78.26386 25613 ft 404 kts 215°
2026-04-28 21:05 0.27110 -78.28078 25192 ft 403 kts 215°
2026-04-28 21:05 0.24868 -78.29747 24779 ft 401 kts 214°
2026-04-28 21:05 0.22657 -78.31393 24372 ft 400 kts 214°
2026-04-28 21:06 0.20423 -78.33057 23962 ft 398 kts 214°
2026-04-28 21:06 0.18231 -78.34689 23562 ft 396 kts 214°
2026-04-28 21:06 0.16010 -78.36343 23156 ft 393 kts 214°
2026-04-28 21:06 0.13835 -78.37961 22760 ft 391 kts 214°
2026-04-28 21:07 0.11638 -78.39597 22358 ft 388 kts 214°
2026-04-28 21:07 0.09491 -78.41195 21969 ft 386 kts 214°
2026-04-28 21:07 0.07336 -78.42799 21578 ft 384 kts 214°
2026-04-28 21:07 0.05190 -78.44397 21188 ft 382 kts 214°
2026-04-28 21:08 0.03079 -78.45968 20805 ft 380 kts 215°
2026-04-28 21:08 0.00970 -78.47539 20422 ft 377 kts 215°
2026-04-28 21:08 -0.01119 -78.49069 20113 ft 373 kts 211°
2026-04-28 21:08 -0.03456 -78.50177 20158 ft 370 kts 194°
2026-04-28 21:09 -0.06025 -78.50607 20070 ft 378 kts 180°
2026-04-28 21:09 -0.08663 -78.50513 19332 ft 385 kts 173°
2026-04-28 21:09 -0.11363 -78.50281 18582 ft 387 kts 173°
2026-04-28 21:09 -0.14009 -78.50038 18114 ft 365 kts 173°
2026-04-28 21:10 -0.16492 -78.49853 17496 ft 354 kts 174°
2026-04-28 21:10 -0.18865 -78.49674 17171 ft 333 kts 173°
2026-04-28 21:10 -0.21156 -78.49498 16536 ft 326 kts 173°
2026-04-28 21:10 -0.23371 -78.49325 16241 ft 308 kts 173°
2026-04-28 21:11 -0.25434 -78.49164 15956 ft 290 kts 173°
2026-04-28 21:11 -0.27444 -78.49004 15301 ft 285 kts 173°
2026-04-28 21:11 -0.29362 -78.48852 15265 ft 269 kts 173°
2026-04-28 21:11 -0.31161 -78.48711 15235 ft 256 kts 173°
2026-04-28 21:12 -0.32909 -78.48573 15239 ft 245 kts 173°
2026-04-28 21:12 -0.34573 -78.48441 15274 ft 236 kts 173°
2026-04-28 21:12 -0.36144 -78.48138 15271 ft 229 kts 158°
2026-04-28 21:12 -0.37624 -78.47480 14991 ft 233 kts 149°
2026-04-28 21:13 -0.38992 -78.46640 14751 ft 230 kts 143°
2026-04-28 21:13 -0.40232 -78.45667 14553 ft 229 kts 137°
2026-04-28 21:13 -0.41360 -78.44540 14312 ft 231 kts 125°
2026-04-28 21:13 -0.41969 -78.43057 13925 ft 232 kts 95°
2026-04-28 21:14 -0.41696 -78.41445 13325 ft 243 kts 63°
2026-04-28 21:14 -0.40597 -78.40131 12766 ft 253 kts 39°
2026-04-28 21:14 -0.39113 -78.39129 12180 ft 263 kts 31°
2026-04-28 21:14 -0.37522 -78.38230 11562 ft 267 kts 29°
2026-04-28 21:15 -0.35877 -78.37386 11167 ft 262 kts 27°
2026-04-28 21:15 -0.34253 -78.36595 11043 ft 252 kts 26°
2026-04-28 21:15 -0.32712 -78.35865 11019 ft 239 kts 25°
2026-04-28 21:15 -0.31251 -78.35184 11017 ft 223 kts 25°
2026-04-28 21:16 -0.29838 -78.34780 11059 ft 205 kts
2026-04-28 21:16 -0.28416 -78.34769 10886 ft 204 kts 359°
2026-04-28 21:16 -0.27005 -78.34824 10589 ft 197 kts 359°
2026-04-28 21:16 -0.25666 -78.34876 10312 ft 185 kts 359°
2026-04-28 21:17 -0.24416 -78.34928 10031 ft 175 kts 359°
2026-04-28 21:17 -0.23242 -78.34977 9786 ft 166 kts 358°
2026-04-28 21:17 -0.22080 -78.35026 9566 ft 167 kts 358°
2026-04-28 21:17 -0.20908 -78.35076 9338 ft 168 kts 358°
2026-04-28 21:18 -0.19743 -78.35126 9099 ft 167 kts 358°
2026-04-28 21:18 -0.18583 -78.35176 8865 ft 166 kts 358°
2026-04-28 21:18 -0.17417 -78.35226 8625 ft 166 kts 358°
2026-04-28 21:18 -0.16288 -78.35274 8383 ft 165 kts 359°
2026-04-28 21:19 -0.15138 -78.35324 8138 ft 166 kts 358°
2026-04-28 21:19 -0.13984 -78.35377 7930 ft 167 kts 359°
2026-04-28 21:19 -0.12860 -78.35421 7858 ft 152 kts 357°
2026-04-28 21:19 -0.11970 -78.35458 7807 ft 97 kts 358°
2026-04-28 21:20 -0.11386 -78.35486 7785 ft 73 kts 358°
2026-04-28 21:20 -0.11052 -78.35500 7778 ft 70 kts 358°
2026-04-28 21:20 -0.10634 -78.35519 7770 ft 19 kts 354°
2026-04-28 21:20 -0.10576 -78.35593 7768 ft 13 kts 268°
2026-04-28 21:21 -0.10581 -78.35674 7767 ft 6 kts 242°
2026-04-28 21:21 -0.10616 -78.35686 7768 ft 4 kts 188°
2026-04-28 21:21 -0.10647 -78.35688 7768 ft 4 kts 178°
2026-04-28 21:21 -0.10681 -78.35686 7770 ft 5 kts 177°
2026-04-28 21:22 -0.10722 -78.35686 7771 ft 6 kts 178°
2026-04-28 21:22 -0.10768 -78.35683 7772 ft 7 kts 176°
2026-04-28 21:22 -0.10820 -78.35680 7773 ft 8 kts 178°
2026-04-28 21:22 -0.10859 -78.35679 7774 ft 8 kts 177°
2026-04-28 21:23 -0.10950 -78.35675 7775 ft 10 kts 177°
2026-04-28 21:23 -0.11032 -78.35671 7776 ft 12 kts 177°
2026-04-28 21:23 -0.11127 -78.35667 7777 ft 14 kts 178°
2026-04-28 21:23 -0.11234 -78.35664 7779 ft 15 kts 178°
2026-04-28 21:24 -0.11348 -78.35659 7782 ft 17 kts 178°
2026-04-28 21:24 -0.11469 -78.35653 7785 ft 17 kts 177°
2026-04-28 21:24 -0.11594 -78.35648 7789 ft 17 kts 177°
2026-04-28 21:24 -0.11718 -78.35641 7794 ft 17 kts 177°
2026-04-28 21:25 -0.11840 -78.35638 7799 ft 14 kts 178°
2026-04-28 21:25 -0.11915 -78.35635 7803 ft 10 kts 177°
2026-04-28 21:25 -0.11984 -78.35631 7806 ft 9 kts 177°
2026-04-28 21:25 -0.12046 -78.35628 7809 ft 8 kts 178°
2026-04-28 21:26 -0.12100 -78.35626 7812 ft 7 kts 178°
2026-04-28 21:26 -0.12147 -78.35624 7815 ft 6 kts 178°
2026-04-28 21:26 -0.12189 -78.35622 7817 ft 5 kts 178°
2026-04-28 21:26 -0.12223 -78.35621 7820 ft 4 kts 177°
2026-04-28 21:27 -0.12252 -78.35619 7822 ft 4 kts 177°
2026-04-28 21:27 -0.12283 -78.35618 7823 ft 4 kts 177°
2026-04-28 21:27 -0.12314 -78.35616 7825 ft 4 kts 177°
2026-04-28 21:27 -0.12345 -78.35618 7826 ft 2 kts 210°
2026-04-28 21:28 -0.12356 -78.35637 7826 ft 3 kts 256°
2026-04-28 21:28 -0.12367 -78.35666 7826 ft 4 kts 222°
2026-04-28 21:28 -0.12401 -78.35674 7827 ft 5 kts 175°
2026-04-28 21:28 -0.12437 -78.35673 7829 ft 5 kts 179°
2026-04-28 21:29 -0.12470 -78.35672 7831 ft 4 kts 177°
2026-04-28 21:29 -0.12503 -78.35671 7833 ft 4 kts 178°
2026-04-28 21:29 -0.12537 -78.35670 7835 ft 5 kts 178°
2026-04-28 21:29 -0.12575 -78.35668 7838 ft 5 kts 178°
2026-04-28 21:30 -0.12614 -78.35667 7840 ft 5 kts 178°
2026-04-28 21:30 -0.12660 -78.35665 7842 ft 7 kts 178°
2026-04-28 21:30 -0.12719 -78.35678 7843 ft 9 kts 190°
2026-04-28 21:30 -0.12794 -78.35678 7846 ft 10 kts 177°
2026-04-28 21:31 -0.12865 -78.35675 7851 ft 9 kts 178°
2026-04-28 21:31 -0.12931 -78.35673 7855 ft 9 kts 178°
2026-04-28 21:31 -0.12957 -78.35700 7856 ft 6 kts 258°
2026-04-28 21:31 -0.12962 -78.35753 7855 ft 4 kts 268°
2026-04-28 21:32 -0.12962 -78.35761 7855 ft 0 kts 268°